Regional Weather Roundup
Issued by NWS

Home | Current Version | Previous Version | Text Only | Print | Product List | Glossary On
Versions: 1 2 3 4 5 6 7 8 9 10 11 12 13 14 15 16 17 18 19 20 21 22 23 24 25 26 27 28 29 30 31 32 33 34 35 36 37 38 39 40 41 42 43 44 45 46 47 48 49 50
000
ASUS43 KDTX 230910
RWRMI
MICHIGAN HOURLY REGIONAL WEATHER ROUNDUP
NATIONAL WEATHER SERVICE DETROIT/PONTIAC MI
400 AM EST THU NOV 23 2017

NOTE: "FAIR" INDICATES FEW OR NO CLOUDS BELOW 12,000 FEET WITH NO
SIGNIFICANT WEATHER AND/OR OBSTRUCTION TO VISIBILITY.

MIZ047>049-052>055-059>063-066>070-074>076-081>083-231000-
SOUTHEAST LOWER MICHIGAN

CITY           SKY/WX    TMP DP  RH WIND       PRES   REMARKS
ADRIAN         CLOUDY    28  23  81 SW5       30.17F WCI  23
ALMA           CLOUDY    30  25  82 S7        30.09F WCI  23
ANN ARBOR      CLOUDY    27  22  81 S5        30.15F WCI  22
BAD AXE        CLOUDY    29  19  66 SW7       30.10F WCI  22
CARO           CLOUDY    29  21  70 S7        30.10F WCI  22
DETROIT CITY   CLOUDY    30  21  69 SW9       30.16F WCI  22
DETROIT        CLOUDY    30  23  75 S6        30.17F WCI  24
FLINT          CLOUDY    30  20  66 SW8       30.11F WCI  22
GROSSE ILE     CLOUDY    31  23  71 SW6       30.17F WCI  25
HILLSDALE      CLOUDY    30  21  69 SW6       30.13S WCI  24
HOWELL         CLOUDY    29  23  77 S5        30.11F WCI  24

CITY           SKY/WX    TMP DP  RH WIND       PRES   REMARKS
JACKSON        CLOUDY    31  21  66 S9        30.12F WCI  23
LAMBERTVILLE   CLOUDY    31  23  71 S5        30.17F WCI  26
LANSING        CLOUDY    30  22  72 SW9       30.11F WCI  22
LAPEER         CLOUDY    29  20  68 SW7       30.11F WCI  22
MASON          CLOUDY    31  24  74 S3        30.11F
MONROE         CLOUDY    31  22  69 SW3       30.16F
MT. CLEMENS    CLOUDY    28  24  83 S8        30.13F WCI  20
PONTIAC        CLOUDY    29  20  69 S7        30.11F WCI  22
PORT HOPE        N/A     31  19  61 SW8       30.07F WCI  23
PORT HURON     CLOUDY    28  19  69 S5        30.14F WCI  23
TRI CITIES     CLOUDY    31  23  72 S10       30.09F WCI  22
MIDLAND        CLOUDY    31  24  74 S6        30.08F WCI  26
TROY           CLOUDY    31  20  64 S7        30.15F WCI  24
SAGINAW HB     CLOUDY    30  23  74 S8        30.09F WCI  23
$$
MIZ043>046-050>051-056>058-064>065-071>073-077>080-231000-
SOUTHWEST LOWER MICHIGAN

CITY           SKY/WX    TMP DP  RH WIND       PRES   REMARKS
BATTLE CREEK   CLOUDY    30  20  66 SW14      30.11F WCI  19
BENTON HARBOR  CLOUDY    32  18  56 S9        30.13F WCI  24
BIG RAPIDS     CLOUDY    30  24  78 SW5       30.04F WCI  25
COLDWATER      CLOUDY    31  20  65 SW6       30.13F WCI  25
FREMONT        CLOUDY    33  24  70 SW6       30.05F WCI  28
HOLLAND        MOCLDY    36  24  62 W12       30.10F WCI  28
GRAND RAPIDS   MOCLDY    31  24  75 SW10      30.09F WCI  22
IONIA          CLOUDY    32  22  66 S9        30.08F WCI  24
KALAMAZOO      CLOUDY    31  18  58 SW12      30.12F WCI  22
LUDINGTON      CLOUDY    33  25  71 W13G18    30.03F WCI  24
MARSHALL       CLOUDY    29  19  65 SW7       30.11F WCI  22
MOUNT PLEASANT CLOUDY    32  23  70 SW8       30.05F WCI  25
MUSKEGON       CLOUDY    37  21  52 W13G21    30.07F WCI  29
SOUTH HAVEN    PTCLDY    32  20  61 S7        30.11F WCI  26
$$
MIZ016>042-231000-
NORTHERN LOWER MICHIGAN

CITY           SKY/WX    TMP DP  RH WIND       PRES   REMARKS
ALPENA         CLOUDY    28  21  75 S6        30.03F WCI  22
BEAVER ISLAND  CLOUDY    34  24  67 W14G21    29.96F WCI  24
BELLAIRE       MOCLDY    28  24  86 S3        30.01F
CADILLAC       CLOUDY    29  23  78 SW8       29.99F WCI  21
CHARLEVOIX     CLOUDY    33  25  72 SW12      30.01F WCI  25
FRANKFORT      CLOUDY    35  28  75 SW8G20    30.01F WCI  28
GAYLORD        CLEAR     23  18  81 SW8       29.97F WCI  14
GRAYLING       PTCLDY    27  21  77 S5        30.01F WCI  22
HARBOR SPRINGS CLOUDY    31  25  78 SW10G18   29.97F WCI  22
HOUGHTON LAKE  CLOUDY    28  22  78 SW8       30.02F WCI  20
MANISTEE       CLOUDY    33  27  78 SW9       30.03F WCI  25
OSCODA         CLOUDY    30  20  66 SW10      30.05F WCI  21
PELLSTON       CLOUDY    30  24  78 S8        29.97F WCI  22
ROGERS CITY    CLEAR     27  20  77 S8        30.01F WCI  18
TRAVERSE CITY  CLOUDY    32  24  72 SW5       30.01F WCI  27
$$
MIZ007>008-015-231000-
EASTERN UPPER MICHIGAN

CITY           SKY/WX    TMP DP  RH WIND       PRES   REMARKS
KINROSS        CLOUDY    28  24  85 NW5       29.94F WCI  23
MACKINAC ISLAN CLOUDY    32  25  76 SW8       29.95F WCI  25
NEWBERRY       CLOUDY    26  18  70 SW8       29.93F WCI  18
S. S. MARIE    CLOUDY    29  23  78 SW3       29.94F
MUNISING         N/A     27  18  69 SW7       29.94F WCI  19
$$
MIZ004>006-011>014-085-231000-
CENTRAL UPPER MICHIGAN

CITY           SKY/WX    TMP DP  RH WIND       PRES   REMARKS
MANISTIQUE     CLOUDY    28  11  48 W7        29.95F WCI  21
ESCANABA       CLOUDY    28  18  66 SW7       29.97F WCI  21
MENOMINEE      CLOUDY    29  20  69 W6        30.01S WCI  23
SAWYER-GWINN   CLOUDY    25  17  72 SW7       29.91F WCI  17
$$
MIZ001>003-009>011-084-231000-
WESTERN UPPER MICHIGAN

CITY           SKY/WX    TMP DP  RH WIND       PRES   REMARKS
IRON MOUNTAIN  CLOUDY    26  18  71 CALM      29.93F
HOUGHTON       CLOUDY    26  19  74 W10       29.87F WCI  16
COPPER HARBOR    N/A     28  20  71 VRB7      29.88F WCI  21
IRONWOOD       CLOUDY    25  19  78 SW6       29.92S WCI  18
$$

ABBREVIATIONS USED IN REMARKS
   TC - TEMPERATURE IN CELSIUS
  WCI - WIND CHILL INDEX
   HX - HEAT INDEX
  VSB - VISIBILITY





USA.gov is the U.S. government's official web portal to all federal, state and local government web resources and services.